Home   Weather   Brest   Past weeks

Flag for France Past Weather in Brest, Brittany, France — Yesterday and Last 2 Weeks

Now
63 °F

Partly sunny.


Feels Like: 63 °F
Forecast: 58 / 64 °F
Wind: 12 mph from West

Location: Brest Airport

Current Time: Sep 25, 2016 at 12:46:42 PM

Latest Report: Sep 25, 2016 at 12:00 PM


Visibility: N/A

Pressure: 30.09 "Hg

Humidity: 68%

Dew Point: 52 °F

Location of BrestLocation

Past Weather in Brest — Graph

°F

Brest Temperature Yesterday

Maximum temperature yesterday: 70 °F (at 1:00 PM)
Minimum temperature yesterday: 57 °F (at 4:30 AM)
Average temperature yesterday: 63 °F

High & Low Weather Summary for the Past Weeks

 TemperatureHumidityPressure
High75 °F (Sep 12, 4:00 PM)100% (Sep 10, 11:00 AM)30.27 "Hg (Sep 10, 11:00 AM)
Low46 °F (Sep 11, 7:00 AM)56% (Sep 11, 2:00 PM)29.62 "Hg (Sep 14, 5:30 AM)
Average60 °F87%30.02 "Hg
* Reported Sep 10 11:00 AM — Sep 25 11:30 AM, Brest, Weather by CustomWeather, © 2016

Note: Actual official high and low records may vary slightly from our data, if they occured in-between our weather recording intervals... More about our weather records

Advertising

Brest Weather History for the Previous 24 Hours

Scroll right to see more
 ConditionsComfort  
Time TempWeatherWind HumidityBarometerVisibility
11:30 AM
Sun, Sep 25
63 °FMostly cloudy.12 mph68%30.09 "HgN/A
11:00 AM61 °FScattered clouds.9 mph72%30.09 "HgN/A
10:30 AM59 °FOvercast.7 mph77%30.07 "HgN/A
10:00 AM57 °FPartly sunny.5 mph82%30.07 "HgN/A
9:30 AM55 °FBroken clouds.9 mph82%30.04 "HgN/A
9:00 AM54 °FPartly sunny.6 mph88%30.04 "HgN/A
8:30 AM52 °FBroken clouds.6 mph94%30.01 "HgN/A
8:00 AM52 °FClear.6 mph94%30.01 "Hg10 mi
7:30 AM54 °FClear.5 mph94%30.01 "Hg10 mi
7:00 AM55 °FClear.6 mph88%29.98 "Hg10 mi
6:30 AM55 °FPassing clouds.5 mph88%29.98 "HgN/A
6:00 AM55 °FPassing clouds.7 mph94%29.95 "HgN/A
5:30 AM55 °FPartly cloudy.5 mph94%29.95 "HgN/A
5:00 AM57 °FPassing clouds.7 mph88%29.92 "HgN/A
4:30 AM57 °FClear.7 mph88%29.92 "Hg10 mi
4:00 AM57 °FOvercast.6 mph94%29.92 "HgN/A
3:30 AM57 °FPartly cloudy.6 mph100%29.92 "HgN/A
3:00 AM57 °FMostly cloudy.8 mph100%29.89 "HgN/A
2:30 AM57 °FPartly cloudy.9 mph100%29.89 "HgN/A
2:00 AM57 °FPartly cloudy.10 mph100%29.86 "HgN/A
1:30 AM57 °FLight rain. Overcast.8 mph100%29.86 "HgN/A
1:00 AM59 °FRain. Fog.10 mph94%29.86 "Hg3 mi
12:30 AM59 °FLight rain. Mostly cloudy.15 mph100%29.86 "HgN/A
12:00 AM63 °FRain. Mostly cloudy.22 mph94%29.83 "HgN/A
11:30 PM
Sat, Sep 24
63 °FLight rain. Low clouds.18 mph100%29.83 "HgN/A
11:00 PM64 °FLight rain. Low clouds.20 mph88%29.83 "Hg6 mi
10:30 PM64 °FLow clouds.20 mph88%29.83 "HgN/A
10:00 PM64 °FOvercast.20 mph88%29.86 "HgN/A
9:30 PM64 °FOvercast.18 mph88%29.86 "HgN/A
9:00 PM64 °FOvercast.17 mph83%29.86 "HgN/A
8:30 PM64 °FOvercast.16 mph83%29.86 "HgN/A
8:00 PM64 °FOvercast.15 mph83%29.86 "HgN/A
7:30 PM64 °FOvercast.15 mph83%29.89 "HgN/A
7:00 PM64 °FPartly sunny.15 mph83%29.89 "HgN/A
6:30 PM64 °FPartly sunny.14 mph83%29.89 "HgN/A
6:00 PM64 °FPartly sunny.16 mph83%29.92 "HgN/A
5:30 PM66 °FMostly cloudy.16 mph83%29.92 "HgN/A
5:00 PM66 °FMostly cloudy.18 mph83%29.92 "HgN/A
4:30 PM66 °FPartly sunny.20 mph83%29.95 "HgN/A
4:00 PM68 °FMostly cloudy.17 mph78%29.95 "HgN/A
3:30 PM68 °FMostly cloudy.20 mph78%29.95 "HgN/A
3:00 PM68 °FMostly cloudy.22 mph78%29.95 "HgN/A
2:30 PM68 °FMostly cloudy.24 mph78%29.98 "HgN/A
2:00 PM68 °FMostly cloudy.23 mph78%29.98 "HgN/A
1:30 PM68 °FMostly cloudy.21 mph78%29.98 "HgN/A
1:00 PM70 °FBroken clouds.24 mph73%29.98 "HgN/A
12:30 PM68 °FPartly sunny.23 mph78%29.98 "HgN/A
12:00 PM66 °FMore clouds than sun.22 mph83%29.98 "HgN/A
Weather by CustomWeather, © 2016

See weather overviewHow to use our weather pages